�������l�o���
Date,Time,MP-1(��Sv/h),MP-2(��Sv/h),MP-3(��Sv/h),MP-4(��Sv/h),MP-5(��Sv/h),MP-6(��Sv/h),MP-7(��Sv/h),����,����(m/s),���J
2023/01/29,00:00,0.156,0.140,0.215,0.211,0.212,0.124,0.079,���k��,7.9,��
2023/01/29,00:10,0.155,0.141,0.215,0.212,0.212,0.124,0.079,�k��,8.4,��
2023/01/29,00:20,0.155,0.141,0.215,0.212,0.211,0.123,0.078,�k��,8.1,��
2023/01/29,00:30,0.155,0.140,0.216,0.212,0.212,0.124,0.079,�k��,8.6,��
2023/01/29,00:40,0.155,0.140,0.215,0.212,0.210,0.123,0.079,�k��,7.8,��
2023/01/29,00:50,0.155,0.140,0.215,0.213,0.212,0.123,0.078,�k��,7.4,��
2023/01/29,01:00,0.156,0.141,0.216,0.211,0.212,0.122,0.078,���k��,6.6,��
2023/01/29,01:10,0.155,0.140,0.215,0.212,0.212,0.123,0.079,�k��,6.1,��
2023/01/29,01:20,0.156,0.140,0.215,0.212,0.212,0.123,0.079,�k��,6.2,��
2023/01/29,01:30,0.155,0.140,0.214,0.212,0.212,0.123,0.078,�k��,5.3,��
2023/01/29,01:40,0.156,0.142,0.215,0.211,0.211,0.123,0.079,�k��,5.7,��
2023/01/29,01:50,0.155,0.141,0.215,0.211,0.211,0.123,0.079,�k��,5.6,��
2023/01/29,02:00,0.156,0.140,0.215,0.212,0.211,0.123,0.079,�k��,5.7,��
2023/01/29,02:10,0.155,0.140,0.216,0.212,0.213,0.123,0.079,�k��,5.8,��
2023/01/29,02:20,0.156,0.140,0.215,0.211,0.211,0.123,0.078,�k��,5.9,��
2023/01/29,02:30,0.157,0.140,0.215,0.211,0.211,0.123,0.079,�k��,5.5,��
2023/01/29,02:40,0.156,0.141,0.216,0.212,0.212,0.122,0.079,���k��,6.1,��
2023/01/29,02:50,0.156,0.140,0.215,0.212,0.212,0.123,0.079,�k��,6.4,��
2023/01/29,03:00,0.156,0.141,0.215,0.211,0.211,0.123,0.079,�k��,6.0,��
2023/01/29,03:10,0.156,0.140,0.215,0.212,0.211,0.124,0.079,�k��,5.8,��
2023/01/29,03:20,0.156,0.140,0.215,0.213,0.211,0.123,0.079,�k�k��,5.3,��
2023/01/29,03:30,0.155,0.140,0.216,0.212,0.212,0.123,0.079,�k��,4.1,��
2023/01/29,03:40,0.156,0.141,0.215,0.211,0.213,0.124,0.078,�k��,5.7,�L
2023/01/29,03:50,0.155,0.140,0.215,0.211,0.211,0.123,0.078,�k��,6.3,��
2023/01/29,04:00,0.155,0.140,0.214,0.211,0.211,0.123,0.079,�k��,7.0,�L
2023/01/29,04:10,0.156,0.141,0.215,0.211,0.212,0.123,0.078,�k��,6.1,��
2023/01/29,04:20,0.155,0.140,0.215,0.211,0.212,0.123,0.079,�k��,5.4,�L
2023/01/29,04:30,0.156,0.141,0.216,0.212,0.212,0.122,0.079,�k��,4.2,��
2023/01/29,04:40,0.155,0.141,0.216,0.211,0.212,0.122,0.079,�k��,3.2,�L
2023/01/29,04:50,0.155,0.140,0.215,0.212,0.211,0.123,0.078,��,1.4,�L
2023/01/29,05:00,0.156,0.139,0.214,0.212,0.211,0.123,0.079,�k��,2.0,�L
2023/01/29,05:10,0.155,0.141,0.215,0.211,0.211,0.123,0.079,�k��,1.4,�L
2023/01/29,05:20,0.156,0.140,0.214,0.211,0.211,0.122,0.079,�k��,2.8,��
2023/01/29,05:30,0.156,0.140,0.215,0.212,0.211,0.122,0.079,�k��,2.1,��
2023/01/29,05:40,0.156,0.140,0.215,0.212,0.212,0.123,0.078,�k��,1.3,��
2023/01/29,05:50,0.156,0.140,0.215,0.210,0.211,0.122,0.079,���k��,1.2,��
2023/01/29,06:00,0.154,0.141,0.215,0.211,0.211,0.123,0.079,��,0.9,��
2023/01/29,06:10,0.155,0.140,0.216,0.212,0.211,0.123,0.079,���k��,1.7,��
2023/01/29,06:20,0.155,0.141,0.215,0.211,0.212,0.123,0.079,�k��,2.3,��
2023/01/29,06:30,0.155,0.140,0.216,0.212,0.211,0.123,0.078,�k��,1.8,��
2023/01/29,06:40,0.155,0.140,0.215,0.212,0.212,0.123,0.079,�쐼,0.7,��
2023/01/29,06:50,0.156,0.140,0.216,0.212,0.212,0.123,0.079,��,1.7,��
2023/01/29,07:00,0.156,0.140,0.215,0.211,0.212,0.123,0.079,��,1.7,��
2023/01/29,07:10,0.155,0.139,0.216,0.211,0.211,0.123,0.079,��,1.2,��
2023/01/29,07:20,0.156,0.141,0.215,0.212,0.211,0.123,0.079,��쐼,2.2,��
2023/01/29,07:30,0.155,0.140,0.215,0.211,0.212,0.123,0.079,��쐼,2.1,��
2023/01/29,07:40,0.157,0.141,0.214,0.212,0.211,0.122,0.079,�쐼,2.4,��
2023/01/29,07:50,0.154,0.140,0.216,0.211,0.212,0.122,0.079,�쐼,3.2,��
2023/01/29,08:00,0.155,0.139,0.215,0.211,0.210,0.123,0.079,���쐼,3.6,��
2023/01/29,08:10,0.155,0.139,0.215,0.210,0.211,0.123,0.079,�쐼,3.2,��
2023/01/29,08:20,0.155,0.140,0.215,0.210,0.211,0.122,0.079,�쐼,2.6,��
2023/01/29,08:30,0.155,0.139,0.215,0.211,0.212,0.122,0.078,��쐼,2.3,��
2023/01/29,08:40,0.154,0.140,0.214,0.211,0.212,0.122,0.078,�쐼,1.8,��
2023/01/29,08:50,0.155,0.139,0.215,0.211,0.211,0.122,0.078,�쐼,1.4,��
2023/01/29,09:00,0.155,0.140,0.213,0.211,0.211,0.122,0.079,���쐼,2.4,��
2023/01/29,09:10,0.155,0.140,0.216,0.211,0.210,0.123,0.078,���쐼,2.0,��
2023/01/29,09:20,0.155,0.140,0.215,0.211,0.211,0.123,0.078,���쐼,2.3,��
2023/01/29,09:30,0.154,0.139,0.214,0.211,0.211,0.123,0.078,���k��,2.5,��
2023/01/29,09:40,0.154,0.140,0.215,0.211,0.212,0.123,0.079,��쐼,0.8,��
2023/01/29,09:50,0.154,0.140,0.214,0.210,0.212,0.122,0.079,-,CALM,��
2023/01/29,10:00,0.155,0.140,0.214,0.211,0.211,0.122,0.079,-,CALM,��
2023/01/29,10:10,0.156,0.139,0.214,0.211,0.210,0.123,0.079,��,1.3,��
2023/01/29,10:20,0.154,0.140,0.213,0.209,0.210,0.123,0.079,-,CALM,��
2023/01/29,10:30,0.155,0.139,0.213,0.211,0.211,0.122,0.079,���쓌,1.4,��
2023/01/29,10:40,0.154,0.140,0.213,0.209,0.211,0.122,0.078,�k��,0.7,��
2023/01/29,10:50,0.154,0.139,0.214,0.210,0.210,0.124,0.079,-,CALM,��
2023/01/29,11:00,0.154,0.140,0.214,0.211,0.211,0.123,0.079,-,CALM,��
2023/01/29,11:10,0.155,0.140,0.213,0.211,0.212,0.123,0.078,���k��,2.0,��
2023/01/29,11:20,0.155,0.140,0.212,0.211,0.211,0.123,0.079,���쐼,2.0,��
2023/01/29,11:30,0.155,0.140,0.215,0.211,0.212,0.123,0.078,���k��,6.2,��
2023/01/29,11:40,0.155,0.140,0.214,0.212,0.211,0.124,0.078,���k��,5.5,��
2023/01/29,11:50,0.154,0.140,0.214,0.211,0.212,0.123,0.079,�k��,5.9,��
2023/01/29,12:00,0.155,0.140,0.214,0.212,0.212,0.123,0.078,��,5.4,��
2023/01/29,12:10,0.155,0.141,0.214,0.212,0.210,0.123,0.078,���k��,3.7,��
2023/01/29,12:20,0.154,0.139,0.214,0.211,0.211,0.123,0.078,���k��,4.3,��
2023/01/29,12:30,0.154,0.140,0.214,0.211,0.211,0.123,0.079,���k��,6.2,��
2023/01/29,12:40,0.155,0.140,0.215,0.212,0.210,0.123,0.079,���k��,6.4,��
2023/01/29,12:50,0.154,0.140,0.215,0.211,0.213,0.122,0.078,���k��,7.6,��
2023/01/29,13:00,0.154,0.140,0.215,0.211,0.211,0.123,0.078,���k��,7.3,��
2023/01/29,13:10,0.154,0.139,0.215,0.213,0.212,0.123,0.078,���k��,7.2,��
2023/01/29,13:20,0.156,0.140,0.214,0.212,0.213,0.123,0.078,�k��,5.8,�L
2023/01/29,13:30,0.155,0.140,0.215,0.213,0.212,0.124,0.078,�k��,4.7,��
2023/01/29,13:40,0.156,0.140,0.215,0.212,0.212,0.124,0.078,���k��,2.5,��
2023/01/29,13:50,0.156,0.141,0.213,0.212,0.212,0.124,0.079,�k�k��,2.2,��
2023/01/29,14:00,0.155,0.140,0.215,0.213,0.213,0.123,0.079,�k��,2.2,��
2023/01/29,14:10,0.156,0.140,0.216,0.211,0.212,0.123,0.078,���k��,4.2,��
2023/01/29,14:20,0.156,0.140,0.216,0.211,0.211,0.123,0.078,�k��,4.6,��
2023/01/29,14:30,0.155,0.141,0.214,0.212,0.211,0.123,0.078,�k��,5.0,��
2023/01/29,14:40,0.155,0.140,0.214,0.211,0.211,0.123,0.079,�k��,4.3,��
2023/01/29,14:50,0.155,0.140,0.216,0.211,0.212,0.123,0.079,�k��,4.6,��
2023/01/29,15:00,0.155,0.141,0.214,0.213,0.212,0.123,0.079,�k��,4.4,��
2023/01/29,15:10,0.155,0.140,0.215,0.211,0.211,0.122,0.078,�k��,4.6,��
2023/01/29,15:20,0.156,0.140,0.215,0.212,0.211,0.123,0.078,�k��,4.6,��
2023/01/29,15:30,0.156,0.141,0.216,0.213,0.213,0.123,0.079,���k��,4.4,��
2023/01/29,15:40,0.155,0.140,0.215,0.213,0.212,0.123,0.078,���k��,5.0,��
2023/01/29,15:50,0.156,0.140,0.214,0.214,0.213,0.123,0.078,���k��,5.9,��
2023/01/29,16:00,0.155,0.140,0.215,0.212,0.212,0.124,0.078,���k��,5.2,��
2023/01/29,16:10,0.155,0.141,0.216,0.213,0.213,0.124,0.079,�k��,3.7,��
2023/01/29,16:20,0.156,0.141,0.215,0.214,0.211,0.123,0.079,�k��,3.4,��
2023/01/29,16:30,0.155,0.140,0.215,0.213,0.212,0.124,0.078,�k��,4.3,��
2023/01/29,16:40,0.154,0.140,0.216,0.212,0.212,0.124,0.079,���k��,5.2,��
2023/01/29,16:50,0.156,0.141,0.215,0.212,0.213,0.123,0.079,�k��,3.5,��
2023/01/29,17:00,0.155,0.140,0.215,0.213,0.212,0.124,0.078,�k�k��,2.0,��
2023/01/29,17:10,0.156,0.141,0.215,0.212,0.213,0.124,0.079,�k,2.6,��
2023/01/29,17:20,0.154,0.140,0.215,0.212,0.212,0.124,0.078,�k�k��,3.7,��
2023/01/29,17:30,0.155,0.141,0.215,0.213,0.213,0.124,0.079,�k�k��,4.9,��
2023/01/29,17:40,0.156,0.141,0.216,0.213,0.213,0.124,0.079,�k�k��,4.4,��
2023/01/29,17:50,0.155,0.140,0.216,0.213,0.212,0.124,0.079,�k�k��,4.1,��
2023/01/29,18:00,0.157,0.140,0.216,0.211,0.212,0.124,0.079,�k�k��,4.7,��
2023/01/29,18:10,0.156,0.140,0.216,0.212,0.213,0.124,0.079,�k�k��,3.8,��
2023/01/29,18:20,0.156,0.141,0.216,0.212,0.212,0.123,0.079,�k�k��,4.1,��
2023/01/29,18:30,0.156,0.140,0.216,0.212,0.212,0.123,0.079,�k�k��,4.3,��
2023/01/29,18:40,0.156,0.141,0.216,0.213,0.213,0.123,0.079,�k�k��,5.6,��
2023/01/29,18:50,0.156,0.141,0.216,0.212,0.212,0.124,0.078,�k�k��,6.1,��
2023/01/29,19:00,0.156,0.140,0.216,0.212,0.212,0.123,0.079,�k�k��,6.0,��
2023/01/29,19:10,0.156,0.140,0.216,0.213,0.212,0.124,0.079,�k�k��,7.4,��
2023/01/29,19:20,0.156,0.141,0.216,0.212,0.213,0.124,0.079,�k�k��,7.3,��
2023/01/29,19:30,0.155,0.141,0.216,0.213,0.213,0.123,0.079,�k�k��,7.3,��
2023/01/29,19:40,0.155,0.141,0.216,0.212,0.213,0.123,0.079,�k�k��,7.4,��
2023/01/29,19:50,0.155,0.140,0.215,0.212,0.214,0.124,0.079,�k�k��,5.9,��
2023/01/29,20:00,0.156,0.141,0.216,0.212,0.212,0.124,0.079,�k�k��,6.5,��
2023/01/29,20:10,0.155,0.139,0.216,0.212,0.213,0.124,0.079,�k�k��,6.1,��
2023/01/29,20:20,0.155,0.141,0.216,0.213,0.212,0.123,0.079,�k�k��,6.2,��
2023/01/29,20:30,0.156,0.141,0.217,0.213,0.213,0.124,0.079,�k�k��,6.7,��
2023/01/29,20:40,0.156,0.141,0.215,0.212,0.212,0.125,0.079,�k�k��,7.0,��
2023/01/29,20:50,0.156,0.140,0.217,0.212,0.212,0.123,0.078,�k�k��,6.5,��
2023/01/29,21:00,0.156,0.140,0.215,0.213,0.212,0.124,0.079,�k�k��,6.5,��
2023/01/29,21:10,0.156,0.141,0.216,0.213,0.212,0.123,0.079,�k�k��,6.1,��
2023/01/29,21:20,0.156,0.141,0.215,0.212,0.212,0.123,0.079,�k�k��,5.8,��
2023/01/29,21:30,0.156,0.141,0.216,0.214,0.212,0.124,0.079,�k�k��,5.7,��
2023/01/29,21:40,0.156,0.141,0.217,0.212,0.212,0.124,0.079,�k�k��,5.0,��
2023/01/29,21:50,0.156,0.140,0.216,0.213,0.213,0.124,0.079,�k�k��,5.5,��
2023/01/29,22:00,0.156,0.140,0.216,0.213,0.212,0.123,0.079,�k�k��,5.6,��
2023/01/29,22:10,0.156,0.140,0.216,0.213,0.212,0.124,0.078,�k�k��,5.6,��
2023/01/29,22:20,0.156,0.140,0.216,0.213,0.212,0.124,0.079,�k�k��,5.6,��
2023/01/29,22:30,0.156,0.141,0.217,0.213,0.212,0.124,0.079,�k�k��,5.7,��
2023/01/29,22:40,0.156,0.141,0.216,0.212,0.213,0.123,0.079,�k�k��,5.6,�L
2023/01/29,22:50,0.156,0.141,0.216,0.213,0.212,0.124,0.079,�k�k��,5.4,��
2023/01/29,23:00,0.156,0.141,0.215,0.213,0.213,0.123,0.079,�k�k��,5.6,��
2023/01/29,23:10,0.155,0.140,0.215,0.212,0.212,0.124,0.078,�k��,5.4,��
2023/01/29,23:20,0.157,0.141,0.217,0.213,0.213,0.123,0.079,�k�k��,5.7,��
2023/01/29,23:30,0.155,0.141,0.216,0.213,0.212,0.124,0.079,�k��,5.6,��
2023/01/29,23:40,0.155,0.141,0.216,0.214,0.213,0.123,0.079,�k�k��,5.2,��
2023/01/29,23:50,0.155,0.140,0.216,0.214,0.213,0.123,0.079,�k��,5.7,��
